Flag for Luxembourg Weather past 2 weeks in Differdange, Luxembourg

Now
50 °F

Light rain. Broken clouds.


Feels Like: 45 °F
Forecast: 35 / 49 °F
Wind: 14 mph from Northeast

Location: Luxembourg Airport

Current Time: Apr 27, 2015 at 9:42:33 AM

Latest Report: Apr 27, 2015 at 8:50 AM


Visibility: 4 mi

Pressure: 29.59 "Hg

Humidity: 94%

Dew point: 48 °F

Location of DifferdangeLocation

Historic Weather in Differdange — Graph

°F

Differdange temperature yesterday

Maximum temperature yesterday: 66 °F (at 2:50 PM)
Minimum temperature yesterday: 50 °F (at 6:50 AM)
Average temperature yesterday: 55 °F

Past Weeks' High & Low Weather Summary

 TemperatureHumidityPressure
High75 °F (Apr 15, 5:20 PM)100% (Apr 12, 7:20 AM)30.45 "Hg (Apr 12, 7:20 AM)
Low37 °F (Apr 23, 6:20 AM)22% (Apr 21, 5:20 PM)29.59 "Hg (Apr 27, 1:20 AM)
Average55 °F59%30.11 "Hg
* Reported Apr 12 7:20 AM — Apr 27 7:50 AM, Differdange, Weather by CustomWeather, © 2015

Note: Actual official high and low records may vary slightly from our data, if they occured in-between our weather recording intervals... More about our weather records

Advertising

Differdange weather history for previous 24 hours

 ConditionsComfort  
Time TempWeatherWind HumidityBarometerVisibility
7:50 AM
Mon, Apr 27
50 °FBroken clouds.9 mph100%29.59 "Hg4 mi
7:20 AM50 °FPartly sunny.12 mph100%29.59 "HgN/A
6:50 AM50 °FPassing clouds.9 mph100%29.59 "HgN/A
6:20 AM50 °FPassing clouds.7 mph100%29.59 "HgN/A
5:50 AM50 °FPartly cloudy.7 mph100%29.59 "HgN/A
5:20 AM50 °FCool.6 mph100%29.59 "Hg5 mi
4:50 AM52 °FPartly cloudy.3 mph94%29.59 "Hg2 mi
4:20 AM52 °FCool.6 mph100%29.59 "HgN/A
3:50 AM52 °FCool.3 mph100%29.59 "Hg6 mi
3:20 AM52 °FCool.1 mph100%29.59 "Hg5 mi
2:50 AM52 °FCool.2 mph100%29.59 "Hg4 mi
2:20 AM52 °FCool.5 mph100%29.59 "Hg5 mi
1:50 AM52 °FPassing clouds.6 mph100%29.59 "HgN/A
1:20 AM52 °FPassing clouds.6 mph100%29.59 "HgN/A
12:50 AM52 °FPartly cloudy.2 mph100%29.62 "HgN/A
12:20 AM52 °FPartly cloudy.8 mph100%29.62 "HgN/A
11:50 PM
Sun, Apr 26
52 °FPartly cloudy.12 mph100%29.62 "HgN/A
11:20 PM52 °FLight rain. Partly cloudy.8 mph100%29.62 "HgN/A
10:50 PM52 °FHeavy rain. Passing clouds.7 mph100%29.62 "Hg3 mi
10:20 PM52 °FHeavy rain. Fog.5 mph100%29.62 "Hg2 mi
9:50 PM52 °FHeavy rain. Passing clouds.8 mph100%29.62 "Hg3 mi
9:20 PM54 °FLight rain. Overcast.8 mph94%29.62 "HgN/A
8:50 PM54 °FLight rain. Overcast.8 mph94%29.62 "HgN/A
8:20 PM55 °FSprinkles. Overcast.7 mph88%29.62 "HgN/A
7:50 PM55 °FSprinkles. Broken clouds.8 mph88%29.62 "HgN/A
7:20 PM55 °FSprinkles. Broken clouds.6 mph94%29.65 "HgN/A
6:50 PM57 °FSprinkles. Broken clouds.3 mph88%29.65 "HgN/A
6:20 PM55 °FSprinkles. Broken clouds.9 mph100%29.65 "HgN/A
5:50 PM63 °FSprinkles. Partly sunny.6 mph73%29.68 "Hg4 mi
5:20 PM64 °FBroken clouds.2 mph60%29.65 "HgN/A
4:50 PM64 °FPassing clouds.2 mph56%29.68 "HgN/A
4:20 PM64 °FScattered clouds.5 mph60%29.68 "HgN/A
3:50 PM64 °FBroken clouds.6 mph60%29.71 "HgN/A
3:20 PM64 °FBroken clouds.6 mph60%29.71 "HgN/A
2:50 PM66 °FScattered clouds.8 mph56%29.71 "HgN/A
2:20 PM63 °FScattered clouds.9 mph64%29.74 "HgN/A
1:50 PM61 °FScattered clouds.8 mph72%29.74 "HgN/A
1:20 PM61 °FScattered clouds.6 mph72%29.74 "HgN/A
12:50 PM59 °FScattered clouds.6 mph77%29.77 "HgN/A
12:20 PM59 °FScattered clouds.8 mph82%29.77 "HgN/A
11:50 AM59 °FPartly sunny.8 mph82%29.77 "HgN/A
11:20 AM57 °FPartly sunny.7 mph88%29.80 "HgN/A
10:50 AM54 °FBroken clouds.7 mph94%29.80 "HgN/A
10:20 AM54 °FBroken clouds.6 mph94%29.77 "HgN/A
9:50 AM52 °FBroken clouds.6 mph100%29.77 "Hg3 mi
9:20 AM52 °FBroken clouds.6 mph100%29.80 "Hg2 mi
Weather by CustomWeather, © 2015

See weather overviewHow to use our weather pages